Home   Weather   Skien   Past weeks
Flag for Norway

Past Weather in Skien, Norway — Yesterday and Last 2 Weeks

Now
50 °F

Clear.


Feels Like: 48 °F
Forecast: 65 / 44 °F
Wind: 5 mph from West

Location: Torp

Current Time: May 24, 2019 at 11:27:32 pm

Latest Report: May 24, 2019 at 10:50 pm


Visibility: 10 mi

Pressure: 29.68 "Hg

Humidity: 82%

Dew Point: 45 °F

Location of SkienLocation

Past Weather in Skien — Graph

°F

Skien Temperature Yesterday

Maximum temperature yesterday: 55 °F (at 3:20 pm)
Minimum temperature yesterday: 45 °F (at 4:20 am)
Average temperature yesterday: 51 °F

High & Low Weather Summary for the Past Weeks

 TemperatureHumidityPressure
High72 °F (May 21, 3:50 pm)100% (May 9, 10:20 pm)30.60 "Hg (May 9, 10:20 pm)
Low37 °F (May 12, 5:20 am)26% (May 17, 4:50 pm)29.56 "Hg (May 9, 10:20 pm)
Average53 °F76%30.03 "Hg
* Reported May 9 10:20 pm — May 24 10:20 pm, Skien. Weather by CustomWeather, © 2019

Note: Actual official high and low records may vary slightly from our data, if they occured in-between our weather recording intervals... More about our weather records

Advertising

Skien Weather History for the Previous 24 Hours

Scroll right to see more
 ConditionsComfort  
Time TempWeatherWind HumidityBarometerVisibility
10:20 pm
Fri, May 24
50 °FClear.5 mph88%29.68 "Hg10 mi
9:50 pm52 °FSunny.3 mph82%29.68 "Hg10 mi
9:20 pm54 °FPassing clouds.3 mph82%29.68 "HgN/A
8:50 pm54 °FPassing clouds.7 mph77%29.65 "HgN/A
7:50 pm55 °FScattered showers. Broken clouds.9 mph72%29.65 "HgN/A
7:20 pm52 °FSprinkles. Broken clouds.9 mph82%29.65 "HgN/A
6:50 pm55 °FScattered showers. Broken clouds.13 mph67%29.65 "HgN/A
6:20 pm55 °FScattered clouds.10 mph72%29.65 "HgN/A
5:50 pm55 °FScattered clouds.10 mph72%29.65 "HgN/A
5:20 pm54 °FScattered clouds.9 mph77%29.65 "HgN/A
4:50 pm54 °FScattered showers. Scattered clouds.13 mph77%29.62 "HgN/A
4:20 pm52 °FScattered showers. Broken clouds.9 mph94%29.62 "HgN/A
3:50 pm50 °FScattered showers. Broken clouds.10 mph100%29.62 "HgN/A
3:20 pm50 °FLight rain. Fog.9 mph100%29.62 "Hg3 mi
2:50 pm50 °FRain. Broken clouds.6 mph88%29.62 "HgN/A
2:20 pm50 °FScattered showers. Partly sunny.3 mph88%29.62 "HgN/A
1:50 pm50 °FScattered showers. Broken clouds.8 mph94%29.62 "HgN/A
1:20 pm50 °FHeavy rain. Broken clouds.5 mph100%29.59 "HgN/A
12:50 pm52 °FMore clouds than sun.3 mph77%29.59 "HgN/A
12:20 pm52 °FScattered showers. Partly sunny.5 mph77%29.59 "HgN/A
11:50 am54 °FPartly sunny.1 mph67%29.59 "HgN/A
11:20 am54 °FBroken clouds.6 mph77%29.59 "HgN/A
10:50 am52 °FBroken clouds.5 mph88%29.59 "HgN/A
10:20 am50 °FPartly sunny.5 mph100%29.59 "HgN/A
9:50 am48 °FRain showers. Broken clouds.6 mph100%29.59 "Hg4 mi
9:20 am48 °FBroken clouds.7 mph100%29.59 "HgN/A
8:50 am48 °FDrizzle. Fog.9 mph100%29.59 "Hg2 mi
8:20 am46 °FLight rain. Broken clouds.9 mph100%29.59 "HgN/A
7:50 am48 °FLight rain. Broken clouds.8 mph100%29.62 "HgN/A
7:20 am48 °FRain. Broken clouds.9 mph100%29.62 "Hg4 mi
6:50 am48 °FRain. Broken clouds.13 mph100%29.62 "Hg4 mi
6:20 am48 °FLight rain. Partly sunny.12 mph100%29.65 "Hg6 mi
5:50 am48 °FLight rain. Broken clouds.13 mph100%29.65 "Hg5 mi
5:20 am48 °FRain. Cloudy.14 mph100%29.65 "Hg6 mi
4:50 am48 °FRain. Cloudy.16 mph100%29.68 "Hg4 mi
4:20 am48 °FRain. Mostly cloudy.15 mph100%29.68 "Hg5 mi
3:50 am48 °FRain. Overcast.12 mph100%29.68 "Hg5 mi
3:20 am48 °FRain. Mostly cloudy.13 mph100%29.71 "Hg6 mi
2:50 am50 °FRain. Mostly cloudy.13 mph100%29.71 "Hg6 mi
2:20 am50 °FPartly cloudy.15 mph100%29.71 "HgN/A
1:50 am50 °FLight rain. Mostly cloudy.14 mph100%29.74 "Hg6 mi
1:20 am50 °FRain. Mostly cloudy.13 mph100%29.74 "HgN/A
12:50 am50 °FDrizzle. Mostly cloudy.12 mph94%29.77 "HgN/A
12:20 am50 °FMostly cloudy.13 mph88%29.77 "HgN/A
11:50 pm
Thu, May 23
50 °FMostly cloudy.8 mph94%29.77 "HgN/A
11:20 pm50 °FOvercast.12 mph88%29.80 "HgN/A
Weather by CustomWeather, © 2019

See weather overview